Theta_e
342 341 340 339 340 339 339 340 340 340 339 339 339 340 340 340 340 340 339 340 340 340 340 338 339 340 340 341 341 339 338 339 339 340 339 338 337 335 337 338 338 337
342 340 339 339 339 339 340 340 339 338 337 337 338 339 339 340 340 340 339 340 340 340 340 339 339 339 340 340 340 339 339 339 338 339 338 337 336 336 337 338 338 338
342 340 339 339 339 339 339 339 338 337 336 337 338 338 338 339 339 339 339 339 339 340 340 339 339 339 339 339 339 339 339 339 339 339 339 338 337 338 338 337 337 336
342 341 339 338 339 338 338 339 337 337 336 337 337 337 337 337 338 338 338 338 338 338 338 338 338 337 337 337 337 338 338 339 339 338 338 338 338 338 338 337 335 335
342 341 341 340 339 338 339 338 337 337 337 337 337 336 336 336 337 337 336 337 337 337 337 337 337 336 336 336 336 337 338 338 338 338 338 339 339 338 338 337 335 333
342 342 341 340 339 339 338 338 337 337 337 336 336 336 336 336 336 336 336 336 336 336 337 337 337 337 337 337 337 338 339 339 339 338 338 339 339 338 338 337 335 333
343 342 341 340 340 340 340 339 337 337 335 336 336 336 337 336 336 335 335 335 335 336 337 337 338 338 338 338 338 337 338 338 338 337 336 337 337 337 337 335 333 332
344 343 341 340 340 341 340 339 337 336 335 336 336 336 336 336 335 335 334 334 335 336 337 337 338 338 338 337 337 337 336 337 337 337 336 337 337 336 335 334 333 332
343 343 340 340 340 339 338 337 336 334 334 335 334 333 333 333 332 333 333 334 335 335 336 336 337 338 337 337 337 336 336 337 337 337 337 336 336 336 335 334 332 331
342 341 339 339 339 337 337 335 334 333 332 332 331 330 330 330 330 331 332 332 333 334 334 335 337 338 337 337 337 336 335 337 337 336 337 337 335 335 334 333 332 331
341 340 339 339 338 337 335 333 332 331 331 329 328 329 330 331 331 330 329 330 331 332 332 333 336 338 338 337 336 336 336 336 335 334 335 335 335 334 333 332 331 331
341 339 339 338 337 337 335 333 332 332 331 330 331 332 332 331 330 329 329 329 330 331 331 332 335 337 337 337 336 337 336 332 330 332 334 333 333 334 333 331 331 331
340 340 339 338 337 336 335 334 334 333 333 333 334 333 332 331 331 329 329 330 330 331 331 332 333 333 334 337 337 337 335 332 331 334 334 333 333 332 332 331 330 330
337 338 337 337 336 336 335 335 335 334 334 334 334 334 333 332 331 330 329 330 331 331 330 331 332 332 334 336 336 336 335 334 333 333 332 332 332 332 331 331 331 330
336 336 337 337 336 336 335 335 335 335 335 335 335 334 333 331 330 330 331 331 331 331 331 331 331 333 334 336 335 335 334 332 332 331 331 331 331 332 331 331 331 331
336 336 336 337 336 335 335 336 336 336 335 335 335 334 333 331 330 330 332 332 331 331 331 331 332 333 335 334 333 333 331 329 329 329 330 331 331 331 330 330 330 330
337 337 337 337 336 335 336 336 336 336 336 335 335 334 333 331 331 331 332 331 331 331 331 332 332 333 334 333 332 332 330 328 328 329 330 331 331 330 330 329 330 329
338 339 338 337 336 337 336 336 336 336 336 335 335 333 332 331 330 331 331 331 331 331 331 331 332 332 331 331 331 331 329 328 327 328 330 330 331 331 330 331 330 329
339 339 338 338 338 337 337 337 337 337 336 335 335 333 332 330 330 330 331 331 330 330 330 329 329 330 330 330 330 329 328 328 327 327 329 330 331 331 330 332 332 331
338 338 338 337 337 337 337 337 337 337 337 336 334 333 331 330 330 331 331 330 330 329 328 328 328 329 329 329 329 328 328 327 327 327 329 330 330 330 330 331 331 330
339 339 338 337 338 337 337 338 338 338 337 336 335 333 331 331 330 331 331 330 330 329 328 329 329 329 328 328 329 329 328 327 326 327 329 330 331 332 331 329 328 328
340 339 338 338 338 337 338 339 338 338 337 336 335 333 332 331 331 331 331 329 329 328 328 329 329 329 328 327 327 328 328 327 327 329 331 331 332 331 329 327 327 328
339 339 338 338 338 338 338 339 339 338 337 336 334 333 332 331 331 331 331 329 329 329 329 328 328 329 328 327 327 328 327 327 328 330 332 331 331 331 329 328 329 329
339 339 338 338 338 339 339 339 339 338 337 336 334 333 332 330 330 330 330 329 329 329 329 328 328 329 329 327 326 327 328 327 328 330 331 331 331 331 330 329 328 327
339 339 339 339 339 339 339 338 338 337 336 335 334 332 331 330 330 329 329 328 328 329 329 329 329 329 329 328 327 327 328 327 326 328 329 330 330 330 329 328 326 326
339 339 339 338 339 339 338 337 337 336 335 333 333 333 332 331 330 329 329 329 328 328 328 330 331 331 329 327 327 328 329 328 327 327 328 328 328 328 327 325 324 326
Wind_Speed
6 5 4 3 2 3 4 4 4 5 6 8 9 9 9 10 10 10 10 10 10 10 10 10 10 11 10 10 11 11 12 13 12 12 12 12 13 14 14 13 13 12
6 5 4 4 4 4 5 4 5 5 7 8 9 9 9 10 10 10 10 10 10 10 10 9 9 10 10 10 11 11 12 12 11 11 12 12 13 13 12 13 13 12
7 6 5 5 5 5 5 5 5 6 7 8 8 8 9 9 9 10 10 11 11 11 10 10 9 9 9 10 10 11 11 10 10 10 11 11 12 12 12 12 12 12
8 7 6 6 5 5 5 5 5 6 7 7 8 8 9 9 9 10 11 11 11 12 11 11 10 10 9 9 10 10 10 10 9 9 10 11 11 11 11 12 12 13
8 7 7 7 6 6 5 6 6 6 7 7 8 8 9 9 10 11 11 11 12 12 12 11 11 10 10 10 10 10 10 10 9 9 9 10 11 10 10 11 12 14
8 8 8 7 7 6 6 7 6 7 8 8 8 9 9 9 10 11 11 12 13 12 12 12 11 11 10 10 11 10 10 10 10 10 10 11 11 11 10 10 12 13
9 8 8 8 8 7 7 7 7 9 11 10 11 10 9 9 10 11 12 13 13 13 14 13 13 12 11 11 11 10 10 11 11 11 11 12 12 12 11 11 11 12
9 9 9 9 8 7 8 8 10 12 13 13 14 12 10 9 10 11 12 13 14 14 14 15 15 14 13 12 11 11 11 12 12 11 12 12 12 13 12 11 10 11
10 9 9 9 9 9 9 9 10 13 14 13 12 11 9 10 12 13 14 14 13 13 14 15 15 15 14 13 12 12 13 14 14 14 13 12 12 13 13 12 11 12
10 9 9 10 10 9 9 9 10 11 10 8 8 10 12 14 15 14 14 14 12 11 12 14 16 15 15 14 14 14 14 14 15 17 16 14 13 13 13 13 13 13
11 10 10 10 10 9 9 9 9 9 9 11 12 12 13 14 14 12 12 13 12 11 12 15 16 15 15 16 16 15 14 14 16 18 18 17 16 15 14 14 14 14
12 12 11 11 10 9 9 9 9 9 10 12 12 12 12 12 13 13 14 15 14 12 12 14 15 15 16 17 16 15 14 15 16 17 18 18 18 16 15 15 15 15
13 13 12 10 10 9 9 9 9 8 9 11 12 12 12 13 14 14 15 15 14 13 13 15 15 15 15 15 15 15 14 14 16 17 18 19 18 18 17 16 16 15
13 12 12 11 10 9 8 8 8 8 9 10 11 12 12 13 14 14 15 16 16 16 16 16 16 15 15 15 14 13 13 13 15 17 18 19 18 18 17 17 17 17
13 12 12 11 11 10 10 10 9 9 10 10 11 12 12 13 13 14 15 16 16 17 17 16 15 15 16 15 13 12 12 13 15 15 17 18 18 18 17 17 18 18
14 14 13 12 11 11 11 10 10 10 10 11 11 12 13 13 14 14 14 15 15 16 16 15 15 15 15 15 13 12 12 13 15 16 17 17 18 18 18 17 18 19
16 15 14 13 13 12 12 11 11 11 11 11 12 13 13 13 14 13 12 13 14 15 16 15 14 14 15 16 14 13 13 14 15 16 16 17 17 17 17 18 20 22
17 17 16 15 14 13 13 12 12 12 12 12 13 13 13 13 13 12 13 14 14 14 14 14 15 15 16 17 16 14 13 14 15 15 16 17 16 16 18 20 22 25
18 17 16 16 15 14 14 13 13 13 13 13 13 13 13 13 13 13 13 13 13 14 14 15 15 14 14 15 14 13 12 13 14 15 16 16 16 17 19 20 22 23
18 17 16 16 15 15 14 14 14 14 14 13 14 13 13 13 13 12 12 13 14 14 14 14 13 12 12 13 12 12 11 12 14 15 15 15 17 18 19 21 22 22
19 18 17 16 15 15 15 15 15 15 14 14 15 14 13 13 12 11 12 14 15 14 13 12 11 12 13 13 12 13 13 12 13 14 15 15 16 18 20 22 23 23
19 18 17 16 16 16 16 16 16 16 15 16 16 16 15 14 13 12 13 14 15 13 11 10 11 13 14 13 12 12 13 13 13 13 13 15 17 19 21 22 21 21
20 19 18 18 17 17 17 18 17 17 16 17 17 17 16 15 14 13 12 13 13 11 8 9 11 12 12 13 12 10 11 12 12 12 13 16 18 20 20 20 19 18
21 20 20 20 19 19 19 18 18 18 18 17 17 17 16 14 13 13 13 13 13 10 8 9 10 11 12 13 12 9 9 11 12 12 14 16 17 19 19 18 18 19
22 22 22 21 21 21 19 18 18 18 17 17 18 18 16 14 14 16 17 15 12 10 9 9 9 10 13 14 12 9 9 11 11 11 13 15 16 17 18 19 19 19
22 23 24 23 22 21 20 20 19 17 16 17 18 16 16 16 17 18 18 14 11 10 10 8 7 10 13 14 12 9 9 11 11 11 12 14 15 17 18 20 19 18
Wind_Direction
202 206 207 221 232 255 269 275 284 295 305 307 307 309 309 306 304 305 307 309 309 310 311 311 313 314 315 315 316 319 318 314 317 318 315 317 320 320 317 318 321 311
203 209 210 216 234 248 252 261 281 293 298 300 299 303 305 302 301 302 303 306 306 307 307 306 306 308 309 309 309 309 306 308 313 313 314 323 329 328 322 324 328 319
205 209 216 224 235 249 257 265 279 286 289 293 297 303 305 303 301 301 302 304 305 306 305 302 300 300 302 305 307 307 306 308 310 308 311 318 326 326 320 323 328 325
209 214 221 230 237 245 255 263 269 276 283 289 299 306 306 302 300 301 303 303 302 303 301 299 296 294 297 299 301 303 303 303 303 304 306 307 311 314 313 318 324 325
211 216 221 226 234 238 247 257 263 273 282 288 296 300 300 301 301 300 302 302 302 301 299 298 296 293 293 295 296 296 294 295 297 299 299 297 303 308 308 314 321 324
208 215 223 226 229 235 241 250 260 267 271 274 277 279 283 292 297 297 298 300 301 300 299 299 297 294 291 290 293 293 292 293 297 301 301 298 303 307 306 311 318 321
208 214 222 226 226 232 239 245 254 258 260 260 258 261 268 279 288 292 295 298 298 299 299 300 299 296 294 292 293 294 294 295 295 298 301 301 305 307 307 311 313 316
209 216 221 225 226 232 239 244 250 257 262 258 252 255 263 271 279 284 288 292 293 295 297 299 299 299 299 297 293 292 295 296 294 293 296 299 303 306 308 311 309 310
207 217 221 224 226 231 240 248 255 262 265 258 253 262 272 274 276 276 279 282 283 290 297 299 300 299 298 298 297 296 298 297 295 293 294 296 300 304 306 307 305 306
206 215 221 225 231 235 241 250 257 264 273 277 277 284 285 281 277 275 281 281 275 284 299 301 299 296 294 293 294 296 299 302 303 300 297 297 299 301 301 301 299 299
206 213 219 224 231 239 247 258 269 281 292 292 290 293 295 292 291 293 299 295 285 288 300 302 300 296 293 293 295 298 302 305 307 305 302 299 299 298 297 296 294 293
204 210 219 225 228 239 251 262 276 287 288 289 300 313 314 308 307 307 304 299 296 296 300 302 299 295 293 294 295 297 300 302 302 301 298 296 298 299 297 294 290 290
201 206 214 224 226 234 246 254 265 275 282 296 310 315 310 305 303 302 302 305 306 305 305 303 298 295 292 287 285 289 296 300 300 298 297 295 296 297 295 293 290 289
199 205 210 218 221 230 240 245 255 266 275 285 292 293 294 294 297 302 306 307 306 305 304 298 295 296 290 280 280 291 302 305 303 300 297 294 294 295 294 293 292 288
198 203 208 213 217 227 235 238 246 256 265 272 277 280 282 286 293 299 302 302 302 301 299 295 296 297 290 285 288 297 304 307 306 303 298 294 294 295 295 295 296 294
199 202 205 208 213 222 228 234 242 249 258 265 271 274 276 283 289 292 294 297 299 300 299 299 299 295 289 293 297 297 300 306 308 305 300 295 294 295 297 300 301 301
201 202 203 206 212 220 225 231 239 245 254 262 267 270 273 279 283 285 289 294 295 297 298 298 299 295 293 296 295 292 297 304 307 306 301 296 293 294 298 300 301 302
202 202 204 207 211 218 224 231 237 242 251 260 263 266 270 277 280 281 285 289 289 291 293 295 296 294 292 292 290 288 295 302 306 306 301 297 294 294 297 299 301 304
202 203 206 208 211 218 224 228 235 241 248 256 261 264 268 273 276 278 281 288 290 289 290 292 293 293 296 295 288 285 295 304 306 306 302 297 294 295 298 300 303 306
204 205 208 212 214 219 224 227 233 239 245 254 261 264 267 270 274 277 283 288 288 284 286 290 293 301 311 310 299 293 298 303 305 305 302 297 294 294 295 298 303 307
204 206 210 214 217 221 226 230 234 238 244 252 258 261 265 269 273 278 284 286 284 280 284 291 295 299 307 309 305 299 295 299 305 306 302 298 293 291 295 302 308 309
204 207 210 214 220 224 228 232 235 237 241 247 253 257 260 264 268 272 276 279 281 280 281 288 296 300 301 302 302 296 289 295 305 304 297 293 291 292 300 310 314 310
203 207 210 213 219 223 228 232 235 236 238 241 246 251 255 260 264 268 273 276 276 277 278 287 295 299 300 303 307 299 288 294 301 297 290 290 292 296 304 312 313 310
203 207 210 212 216 221 227 232 235 236 237 239 242 245 251 257 263 271 277 277 275 274 280 292 295 292 296 306 311 301 289 295 300 296 293 294 295 298 302 306 309 312
207 209 211 214 217 219 224 230 234 237 239 240 240 243 248 253 262 268 269 268 272 276 282 290 290 285 292 303 307 295 291 302 307 303 299 297 297 298 301 304 309 314
212 212 213 217 219 220 223 228 232 236 241 242 242 244 246 249 255 261 264 266 274 284 288 286 278 282 294 302 298 282 285 304 314 311 305 299 297 297 299 302 308 312